Regional Weather Roundup
Issued by NWS

Home | Current Version | Previous Version | Graphics & Text | Print | Product List | Glossary On
Versions: 1 2 3 4 5 6 7 8 9 10 11 12 13 14 15 16 17 18 19 20 21 22 23 24 25 26 27 28 29 30 31 32 33 34 35 36 37 38 39 40 41 42 43 44 45 46 47 48 49 50
000
ASUS43 KIND 011159
RWRIN

WEATHER ROUNDUP FOR INDIANA
NATIONAL WEATHER SERVICE INDIANAPOLIS IN
700 AM EST SUN MAR 01 2015

NOTE: "FAIR" INDICATES FEW OR NO CLOUDS BELOW 12,000 FEET WITH NO
SIGNIFICANT WEATHER AND/OR OBSTRUCTIONS TO VISIBILITY.

* - STATION DOES NOT REPORT WEATHER SUCH AS PRECIPITATION OR FOG.

+ - STATION NOT QUALITY CONTROLLED BY THE NATIONAL WEATHER SERVICE.
    USE DATA WITH CAUTION...ESPECIALLY DEWPOINT AND RELATIVE
    HUMIDITY OBSERVATIONS.

INZ001>003-010>013-019-020-011300-
NORTHWEST INDIANA

CITY           SKY/WX    TMP DP  RH WIND       PRES   REMARKS
GARY /AIRPORT/ CLOUDY    19  14  79 CALM      30.40S FOG
MONTICELLO +   LGT SNOW  19  17  93 CALM      30.38S
6HR MIN TEMP:  19; 6HR MAX TEMP:  19; 6HR PCP:  0.07;

VALPARAISO     NOT AVBL

$$

LMZ046-743>745-011300-
SOUTHERN LAKE MICHIGAN

STATION/POSITION TIME  TEMP WIND        PRES
                       AIR  DIR/SP/G
                 (UTC) (F)  (DEG/KT/KT) (MB)
MICHIGAN CITY    1100   16   40/  4/  5   N/A

$$

INZ004-005-014>016-021>024-011300-
NORTH CENTRAL INDIANA

CITY           SKY/WX    TMP DP  RH WIND       PRES   REMARKS
GOSHEN         CLOUDY    17  12  80 E3        30.38R HAZE
6HR MIN TEMP:  16; 6HR MAX TEMP:  17; 6HR PCP: TRACE;

PERU/GRISSOM   LGT SNOW  19  18  93 E3        30.36S FOG
SOUTH BEND     MOCLDY    17  12  80 CALM      30.39S
6HR MIN TEMP:  17; 6HR MAX TEMP:  18; 6HR PCP: TRACE;


$$

INZ006>009-017-018-025>027-011300-
NORTHEAST INDIANA

CITY           SKY/WX    TMP DP  RH WIND       PRES   REMARKS
ANGOLA *+      PTCLDY    14  12  92 CALM      30.37S
FORT WAYNE     LGT SNOW  17  14  88 E5        30.39S FOG     WCI  10
6HR MIN TEMP:  17; 6HR MAX TEMP:  17; 6HR PCP:  0.18;


$$

INZ028-029-035-036-043>045-051>053-011300-
WEST CENTRAL INDIANA

CITY           SKY/WX    TMP DP  RH WIND       PRES   REMARKS
CRAWFORDSVL +  LGT SNOW  22  18  85 CALM      30.36S
6HR MIN TEMP:  19; 6HR MAX TEMP:  22; 6HR PCP:  0.10;

GREENCASTLE +  LGT SNOW  25  21  86 CALM      30.36S VSB 1
LAFAYETTE      LGT SNOW  20  18  92 CALM      30.39R FOG
6HR MIN TEMP:  20; 6HR MAX TEMP:  20; 6HR PCP:  0.11;

TERRE HAUTE    LGT SNOW  26  23  88 CALM      30.38S FOG
6HR MIN TEMP:  24; 6HR MAX TEMP:  26; 6HR PCP:  0.25;


$$

INZ030>032-037>040-046>048-054>057-064-065-011300-
CENTRAL INDIANA

CITY           SKY/WX    TMP DP  RH WIND       PRES   REMARKS
GREENWOOD *+   CLOUDY    25  21  86 CALM      30.37S
INDIANAPOLIS   LGT SNOW  24  22  91 CALM      30.36S VSB 3/4
6HR MIN TEMP:  22; 6HR MAX TEMP:  24; 6HR PCP:  0.29;

-EAGLE CREEK   LGT SNOW  24  22  91 CALM      30.36F FOG
6HR MIN TEMP:  22; 6HR MAX TEMP:  24; 6HR PCP:  0.19;

KOKOMO *+      CLOUDY    19  18  93 CALM      30.38S
6HR MIN TEMP:  18; 6HR MAX TEMP:  19; 6HR PCP:  0.03;

MT COMFORT *+  CLOUDY    23 N/A N/A CALM      30.37S VSB 1
SHELBYVILLE    LGT SNOW  27  23  85 E3        30.37S VSB 3/4
6HR MIN TEMP:  24; 6HR MAX TEMP:  27; 6HR PCP:  0.35;


$$

INZ033-034-041-042-049-050-058-059-011300-
EAST CENTRAL INDIANA

CITY           SKY/WX    TMP DP  RH WIND       PRES   REMARKS
MUNCIE         LGT SNOW  24  22  91 S3        30.36S FOG
6HR MIN TEMP:  21; 6HR MAX TEMP:  24; 6HR PCP:  0.25;


$$

INZ060-061-067>069-081>083-085>088-011300-
SOUTHWEST INDIANA

CITY           SKY/WX    TMP DP  RH WIND       PRES   REMARKS
EVANSVILLE     FRZ RAIN  33  27  78 CALM      30.37F
6HR MIN TEMP:  31; 6HR MAX TEMP:  33; 6HR PCP:  0.04;

HUNTINGBURG *+ CLOUDY    32  27  80 SE8       30.38R WCI  25
6HR MIN TEMP:  28; 6HR MAX TEMP:  32;


$$

INZ062-063-066-070>080-084-089>092-011300-
SOUTH CENTRAL AND SOUTHEAST INDIANA

CITY           SKY/WX    TMP DP  RH WIND       PRES   REMARKS
BLOOMINGTON    LGT SNOW  28  27  96 N3        30.36S VSB 1
6HR MIN TEMP:  24; 6HR MAX TEMP:  28; 6HR PCP:  0.28;

SEYMOUR +      LGT SNOW  30  28  93 SE5       30.38F WCI  25

$$



USA.gov is the U.S. government's official web portal to all federal, state and local government web resources and services.